Location: ???????????
(54.5822°N, 39.1075°E)
Time: 10:55:11
(UTC+00:00)

NOSS 3-2 (C) - Pass Details

Date: 19 May 2025
Orbit: 686 x 1523 km, 63.4° (Epoch: 04 June)

Event Time Altitude Azimuth Distance (km) Brightness Sun altitude
Rises 21:07:31 0° 304° (NW) 3,630 7.0 -15.4°
Reaches altitude 10° 21:09:55 10° 309° (NW) 2,792 6.5 -15.4°
Maximum altitude 21:16:32 59° 28° (NNE) 1,333 4.5 -15.4°
Drops below altitude 10° 21:24:39 10° 108° (ESE) 3,395 6.1 -15.4°
Sets 21:27:50 0° 112° (ESE) 4,466 6.7 -15.4°
